Regional Weather Roundup
Issued by NWS Newport/Morehead, NC

Current Version | Previous Version | Graphics & Text | Print | Product List | Glossary On
Versions: 1 2 3 4 5 6 7 8 9 10 11 12 13 14 15 16 17 18 19 20 21 22 23 24 25 26 27 28 29 30 31 32 33 34 35 36 37 38 39 40 41 42 43 44 45 46 47 48 49 50
000 ASUS42 KMHX 271710 RWRMHX WEATHER ROUNDUP FOR EASTERN NORTH CAROLINA NATIONAL WEATHER SERVICE NEWPORT/MOREHEAD CITY NC 100 PM EDT WED AUG 27 2014 NOTE: "FAIR" INDICATES FEW OR NO CLOUDS BELOW 12,000 FEET WITH NO SIGNIFICANT WEATHER AND/OR OBSTRUCTIONS TO VISIBILITY NCZ015>017-031-032-045>047-102-103-271800- NORTH COAST CITY SKY/WX TMP DP RH WIND PRES REMARKS EDENTON MOSUNNY 82 69 64 N7 30.01F ELIZABETH CITY MOSUNNY 81 70 69 NE12 30.01F KITTY HAWK CLOUDY 80 72 78 N9G18 29.98F MANTEO CLOUDY 80 72 78 N16G23 29.99S $$ NCZ045>047-081-094-103-104-271800- CENTRAL COAST CITY SKY/WX TMP DP RH WIND PRES REMARKS FRISCO PTSUNNY 80 75 84 NE12G23 29.95F SWANQUARTER N/A 82 N/A N/A NE9G20 29.94S $$ NCZ095-097-098-100-101-271800- SOUTHERN COAST CITY SKY/WX TMP DP RH WIND PRES REMARKS BEAUFORT PTSUNNY 84 72 67 N18 29.96F CEDAR ISLAND N/A 81 N/A N/A VRB15 30.00S JACKSONVILLE MOSUNNY 85 69 58 NE13 29.99F NEWPORT NOT AVBL PINEY ISLAND MOSUNNY 84 74 71 N16G23 29.96F WILMINGTON SUNNY 84 68 58 N10 29.99F $$ NCZ011>013-027>030-043-044-078>080-089-090>093-098-271800- COASTAL PLAIN CITY SKY/WX TMP DP RH WIND PRES REMARKS AHOSKIE MOSUNNY 79 66 65 NE8 30.04S CLINTON SUNNY 81 66 60 N8 30.03F ELIZABETHTOWN SUNNY 83 63 51 CALM 30.02F GOLDSBORO SUNNY 81 69 66 N8 30.01F GREENVILLE SUNNY 81 70 69 N10 30.03F HAVELOCK PTSUNNY 83 70 64 N12 29.98F KENANSVILLE SUNNY 82 64 54 N8 30.03F KINSTON SUNNY 82 66 57 N9 30.02F NEW BERN MOSUNNY 84 71 65 N12G18 30.00F RICHLANDS MOSUNNY 82 66 57 N8 30.01F ROANOKE RAPIDS NOT AVBL ROCKY MOUNT SUNNY 81 61 50 N9 30.04F WASHINGTON MOSUNNY 82 69 65 N10 30.01F WHITEVILLE SUNNY 82 64 53 N7 30.01F $$ AMZ130-135-150-152-154-156-158-170-250-252-270-ANZ085-086-088-633-658-670-271800- MARINE OBSERVATIONS STATION/POSITION TIME TEMP WIND PRES WAVE SWELL AIR SEA DIR/SP/G HT/PER HT/PER (UTC) (F) (DEG/KT/KT) (MB) (FT/S) (FT/S) CHESAPEAKE LIGHT 1600 73 30/ 15/ 17 1017.4 BUOY 44014 1700 77 78 30/ 16/ 19 1014.7 7/15 7/15 DUCK 1700 74 76 360/ 18/ 21 1014.9 2E DUCK 1700 N/A 5/15 2/15 OREGON INLET 1700 79 77 20/ 15/ 22 1014.9 BUOY 44095 1700 76 N/A 8/14 5/14 20E OREGON INLET NOT AVBL HATTERAS CG 1700 78 78 20/ 21/ 26 1014.4 DIAMOND BUOY 1700 78 360/ 23/ 29 1012.3 10/10 7/10 CAPE LOOKOUT 1600 80 10/ 16/ 19 1014.5 BEAUFORT LAB 1700 80 78 10/ 16/ 22 1014.2 30 SE NEW RIVER 1700 78 80 10/ 19/ 21 1014.4 7/14 5/14 5 SE WRIGHTSVILL 1700 76 81 40/ 12/ 14 N/A BUOY 41002 1640 80 81 340/ 23/ 27 1008.4 13/10 5/13 BUOY 41004 1700 78 83 10/ 16/ 17 1015.3 6/ 8 5/ 8 $$

USA.gov is the U.S. government's official web portal to all federal, state and local government web resources and services.